Regional Weather Roundup
Issued by NWS Grand Forks, ND

Home | Current Version | Previous Version | Graphics & Text | Print | Product List | Glossary On
Versions: 1 2 3 4 5 6 7 8 9 10 11 12 13 14 15 16 17 18 19 20 21 22 23 24 25 26 27 28 29 30 31 32 33 34 35 36 37 38 39 40 41 42 43 44 45 46 47 48 49 50
000
ASUS43 KFGF 210410
RWRFGF
PRAIRIE TO PINES  WEATHER ROUNDUP
NATIONAL WEATHER SERVICE EASTERN NORTH DAKOTA/GRAND FORKS ND
1100 PM CDT SAT SEP 20 2014

 **SATELLITE DATA USED TO AUGMENT SKY COVER AT AUTOMATED STATIONS**
 *****  WEATHER ACROSS EASTERN NORTH DAKOTA  *****

CITY           SKY/WX    TMP DP  RH WIND       PRES   REMARKS
GRAND FORKS    CLOUDY    54  51  90 NW8       29.95R
GRAND FRKS AFB MOCLDY    54  53  95 NW9       29.96R
GRAND FRKS NWS   N/A     54 N/A N/A NW6         N/A
DEVILS LAKE    MOCLDY    57  45  62 NW16      30.00R
FARGO          MOCLDY    55  50  83 N7        29.95R
WAHPETON ARPT  PTCLDY    52  45  76 NW7       29.95R
$$

 ***** WEATHER ACROSS CENTRAL AND WESTERN NORTH DAKOTA  *****

CITY           SKY/WX    TMP DP  RH WIND       PRES   REMARKS
BISMARCK       CLEAR     56  41  57 W9        30.12R
MINOT          MOCLDY    57  40  52 W15       30.08R
JAMESTOWN      CLOUDY    58  45  62 NW10      30.01R
MINOT AFB      CLEAR     54  44  70 NW13      30.08R
GARRISON         N/A     54  41  61 W9        30.12R
WILLISTON      CLEAR     52  37  56 W9        30.17R
DICKINSON      CLEAR     46  35  65 W7        30.18R
HETTINGER      CLEAR     47  35  63 NW6       30.21R
$$

 *****  OTHER AIRPORT OBSERVATIONS IN OUR AREA  *****

CITY           SKY/WX    TMP DP  RH WIND       PRES   REMARKS
WALHALLA         N/A     54  54 100 NW12      29.97R
GRAFTON AIRPOR MOCLDY    54  54 100 NW8       29.95R
VALLEY CITY AR MOCLDY    55  46  71 NW10      29.99R
CANDO          FAIR      55  46  71 N12       30.03R
CAVALIER APRT  MOCLDY    54  50  87 NW7       29.96R
GWINNER        CLEAR     54  45  71 CALM      30.00R
SHEYENNE NWR     N/A     59  45  59 NW8       29.95S
ROLLA          MOCLDY    55  46  71 NW12      30.04R
 ***** THE ABOVE OBSERVATIONS ARE NON NWS ARE NOT QUALITY
       CONTROLLED AND MAY MIS-REPORT RAIN FOR SNOW...
$$

  *****  WEATHER ACROSS NORTHERN MINNESOTA  *****

CITY           SKY/WX    TMP DP  RH WIND       PRES   REMARKS
FLAG ISLAND    LGT RAIN  52  48  87 N9        29.88R
WARROAD        CLOUDY    48  45  87 NW3       29.91R
ROSEAU         CLOUDY    52  46  82 NW5       29.92R
HALLOCK        PTCLDY    52  50  93 NW7       29.94R
THF RVR FALLS  CLOUDY    52  48  87 NW9       29.93R
BAUDETTE       LGT RAIN  51  48  89 N10       29.88R
WASKISH        LGT RAIN  52  48  87 NW5       29.88R
CROOKSTON      PTCLDY    54  52  94 NW8       29.95R
STEPHEN NDAWN    N/A     52  52 100 NW6         N/A
GREENBUSH NDAW   N/A     52  52 100 N3          N/A
$$
  *****  WEATHER ACROSS CENTRAL AND WEST MINNESOTA  *****

CITY           SKY/WX    TMP DP  RH WIND       PRES   REMARKS
FOSSTON        CLOUDY    50  48  93 NW8       29.93R
BEMIDJI        PTCLDY    48  47  97 NW7       29.88R
PARK RAPIDS    PTCLDY    50  48  93 NW9       29.88R
ELBOW LAKE     CLOUDY    57  50  76 NW9       29.93R
WADENA         PTCLDY    54  50  87 W5        29.88S
DETROIT LAKES  MOCLDY    54  50  87 NW9       29.93R
MOORHEAD       MOCLDY    55  55 100 NW6       29.95R
FERGUS FALLS   PTCLDY    54  46  76 NW5       29.93R
MORRIS MN      CLEAR     55  48  76 W12       29.91R
STAPLES        PTCLDY    54  46  76 NW12G20   29.87S
$$
  *****  WEATHER ELSEWHERE ACROSS MINNESOTA  *****

CITY           SKY/WX    TMP DP  RH WIND       PRES   REMARKS
DULUTH         LGT RAIN  54  51  90 NW7       29.72R
INTRNTL FALLS  LGT RAIN  52  50  93 N15       29.83R
ELY            CLOUDY    52  50  93 NW3       29.74R
CLOQUET        LGT RAIN  54  52  94 NW7       29.73R
WHEATON        CLEAR     57  46  67 W13       29.95R
BRAINERD       PTCLDY    52  46  80 N15       29.86R
HIBBING        LGT RAIN  52  49  89 NW22      29.78R
ALEXANDRIA     MOCLDY    54  50  86 NW9       29.92R
SAINT CLOUD    PTCLDY    59  49  69 W16       29.86R
MINNEAPOLIS    PTCLDY    57  52  83 W10       29.85S
$$

  *****  WEATHER ACROSS SOUTH DAKOTA  *****

CITY           SKY/WX    TMP DP  RH WIND       PRES   REMARKS
SIOUX FALLS    CLEAR     58  47  66 W6        30.04R
BROOKINGS      NOT AVBL
WATERTOWN      CLEAR     58  45  62 W10       30.01R
HURON          CLEAR     56  40  55 NW10      30.06R
SISSETON         N/A     62  43  49 NW15      29.95R
ABERDEEN       CLEAR     61  41  47 NW15      30.05R
MITCHELL       CLEAR     55  43  63 NW9       30.07R
PIERRE         CLEAR     55  40  56 NW10      30.13R
MOBRIDGE       CLEAR     53  44  71 NW7       30.11R
RAPID CITY     CLEAR     53  40  61 NW9       30.25R
$$

  *****  SOME WEATHER IN NEARBY STATES *****

CITY           SKY/WX    TMP DP  RH WIND       PRES   REMARKS
GLASGOW MT     CLEAR     52  36  54 W5        30.22R
GREAT FALLS MT CLEAR     56  41  57 E9        30.26R
CHEYENNE WY    CLOUDY    61  40  45 E7        30.40R
SCOTTSBLUFF NE CLEAR     58  42  55 CALM      30.29R
OMAHA NE       CLEAR     70  53  54 N12       30.04R
DES MOINES IA  PTCLDY    69  52  54 N16G32    29.97R
DAVENPORT IA   PTCLDY    71  62  73 NW21G35   29.84R
CHICAGO IL     PTCLDY    70  66  87 SW7       29.74F
EAU CLAIRE WI  CLEAR     56  52  86 W8        29.78S
LA CROSSE WI   MOCLDY    62  55  77 NW18G31   29.81R
$$

  *****  SOME NATIONAL WEATHER *****

CITY           SKY/WX    TMP DP  RH WIND       PRES   REMARKS
LA GUARDIA NY  CLOUDY    70  63  78 S5        30.06S
RALEIGH NC     CLOUDY    67  61  81 N3        30.00F
ATLANTA GA     CLEAR     71  59  65 E5        30.06R
NEW ORLEANS LA CLEAR     79  70  74 SE3       29.99S
OKLAHOMA CITY  CLEAR     72  67  84 S5        30.04R
ALBUQUERQUE NM PTCLDY    75  52  44 SE8       30.20R
SALT LAKE CITY CLOUDY    73  52  47 S3        30.06S
LOS ANGELES CA PTCLDY    69  62  78 W8        29.92R
BOISE ID       CLEAR     70  48  45 CALM      30.01S
SEATTLE WA     CLEAR     65  56  72 N10       29.91F
$$

*** WEATHER ACROSS MANITOBA...SASKATCHEWAN AND ONTARIO ***
                ***ONTARIO***

CITY           SKY/WX    TMP DP  RH WIND       PRES   REMARKS
GERALDTON      CLOUDY    43  41  93 N9        29.80R FOG
THUNDER BAY    CLOUDY    54  48  82 NE6       29.76R
SIOUX LOOKOUT  CLOUDY    45  45 100 VRB2      29.85R
TORONTO        MOCLDY    70  64  83 SW7       29.74F
BIG TROUT LK   CLOUDY    41  34  75 N6        29.89R
PICKLE LAKE    NOT AVBL
DRYDEN         CLOUDY    50  46  87 N3        29.84R
KENORA         LGT RAIN  48  48 100 NW8       29.88R
$$
                *** MANITOBA***

CITY           SKY/WX    TMP DP  RH WIND       PRES   REMARKS
BRANDON        MOCLDY    54  48  82 NW12      30.03R
DAUPHIN        CLOUDY    55  50  82 W6        30.01R
ISLAND LAKE    CLOUDY    50  41  71 CALM      29.93R
PILOT MOUND    NOT AVBL
THE PAS        CLOUDY    54  52  94 N8        29.99
THOMPSON       MOCLDY    37  37 100 NW2       29.98R
WINNIPEG       PTCLDY    50  48  93 W10       29.94R
LYNN LAKE      CLOUDY    45  43  93 SW5       29.96R
CHURCHILL      PTCLDY    36  34  93 NW6       29.96S
$$
                ***SASKATCHEWAN***

CITY           SKY/WX    TMP DP  RH WIND       PRES   REMARKS
ESTEVAN        NOT AVBL
KINDERSLEY     PTCLDY    46  41  81 SW6       30.18R
LLOYDMINSTER   CLEAR     46  36  66 W8        30.11S
PRINCE ALBERT  CLEAR     41  39  93 E2        30.08R
REGINA         CLEAR     46  41  81 W10       30.13R
YORKTON        CLOUDY    54  46  76 W8        30.07R
N. BATTLEFORD  CLEAR     50  36  57 VRB2      30.14R
LA RONGE       CLEAR     41  41 100 S2        30.04S
SASKATOON      CLEAR     46  37  71 W6        30.13R
SWIFT CURRENT  CLEAR     48  36  61 W8        30.20R
$$
NOTE: THESE ARE AUTOMATED STATIONS WITH LIMITED QUALITY CONTROL
      "FAIR" INDICATES FEW OR NO CLOUDS BELOW 12,000 FEET WITH NO
      SIGNIFICANT WEATHER AND/OR OBSTRUCTIONS TO VISIBILITY.
      SKY/WX - SKY CONDITION AND SIGNIFICANT WEATHER.
      TMP - AIR TEMPERATURE.    DP   - DEWPOINT TEMPERATURE.
      RH  - RELATIVE HUMIDITY.  PRES - PRESSURE.
      HX  - HEAT INDEX.         WCI  - WIND CHILL INDEX.
$


USA.gov is the U.S. government's official web portal to all federal, state and local government web resources and services.